Address 0x7fb6c532f6f8b52c348441fbbc386ecfaed3ee94

 
 
Txn Hash
Block
From
To
Value [Txn Fee]
0xd3852366fd306f4895078a4a093fb816cb8f544a5af950f560bd691d03590967(pending)2021-07-30 8:34:244 secs ago0x7fb6c532f6f8b52c348441fbbc386ecfaed3ee94OUT0xc93ec71d4f607208afd4e5c655b250bfc62ee3620 BNB(Pending)
0xa9351982e34c5dec9402fc0459a87d4a76ebd79cc71ad40c582ed22967380b7995975242021-07-30 8:33:4345 secs ago0x7fb6c532f6f8b52c348441fbbc386ecfaed3ee94OUT 0xf6e65c024c13cb1b6ec9313c7ddc37b4f7d98d410 BNB0.00018431
0x5e5d4c70a15594e6a7f2ff12b4e7e603e7af0514ec84efedec528147c9f3216a95975152021-07-30 8:33:161 min ago0x7fb6c532f6f8b52c348441fbbc386ecfaed3ee94OUT 0x349972aab1f3f1e130c474a967d24a877bf589860 BNB0.0001878177
0x755177356981e6f430f537520d169bd12204e3226a174b694a9c1aede321c0bf95975012021-07-30 8:32:341 min ago0x7fb6c532f6f8b52c348441fbbc386ecfaed3ee94OUT 0xc6e3b9f1abe9e19b555e39a2bfea8bfcf003e2220 BNB0.0001878177
0x5eed86fb714bc6dc27a07cdff9a496f850ad1b12afdaf1ce452f1d4da345e7ca95973732021-07-30 8:26:108 mins ago0x7fb6c532f6f8b52c348441fbbc386ecfaed3ee94OUT 0xf6e65c024c13cb1b6ec9313c7ddc37b4f7d98d410 BNB0.0002429405
0x26446ae80e71239bb4f9d23c2bd468cb6d4b02124070959e13d6b10bf5ee00ff95972662021-07-30 8:20:4913 mins ago0x7fb6c532f6f8b52c348441fbbc386ecfaed3ee94OUT 0x8ae57a7f606b2d91c739c84e7d0b377271ceac000 BNB0.000184135
0x4b2c8104db4f4666a9668d1ed11aef1b1de5f0d5dd8964c54608a25129138afe95970752021-07-30 8:11:1623 mins ago0x7fb6c532f6f8b52c348441fbbc386ecfaed3ee94OUT 0xcf43aa6ac1dc40f82e767985ccf7027ae37035750 BNB0.000220962
0xe4ffa00732bedf995f59968490ef8c6b85e2bb3824cde2456dcc745c8b9e4b0395968962021-07-30 8:02:1932 mins ago0x7fb6c532f6f8b52c348441fbbc386ecfaed3ee94SELF0x7fb6c532f6f8b52c348441fbbc386ecfaed3ee940 BNB0.000118881
0x3b67c9b55ddc0e2455dde035b51bcaa66eb81a1688adca5512aa1f7555f1427895967682021-07-30 7:55:5538 mins ago0x7fb6c532f6f8b52c348441fbbc386ecfaed3ee94OUT 0x6cf963760972db30464a7fb9189415b977f431850 BNB0.00018425
0x164cd23001fd79db6867996249044d5c9dd4b62b3618aee868d9ce9f04b7f34095967192021-07-30 7:53:2841 mins ago0x7fb6c532f6f8b52c348441fbbc386ecfaed3ee94OUT 0xe97a25e36ae27944c9f7b3e99aa6de0edca133e10 BNB0.000203315273
0xb64b8fe966b9140b1c1fd18b18e3f19bd2fad6d32fb753c8e14f2b980018969b95966502021-07-30 7:50:0144 mins ago0x7fb6c532f6f8b52c348441fbbc386ecfaed3ee94OUT 0xf6e65c024c13cb1b6ec9313c7ddc37b4f7d98d410 BNB0.000258034
0x87c2794dcd40e1dfd684cd02279cdb7aa61e5db09a316541e119801eb31f2d7195964452021-07-30 7:38:3155 mins ago0x7fb6c532f6f8b52c348441fbbc386ecfaed3ee94OUT 0xf6e65c024c13cb1b6ec9313c7ddc37b4f7d98d410 BNB0.00023000643
0x37f80ac695836c0d50cf07a83f4e4f8ff11f8d3dc6a829dbce94380085700ae195964082021-07-30 7:36:3157 mins ago0x7fb6c532f6f8b52c348441fbbc386ecfaed3ee94OUT 0xf6e65c024c13cb1b6ec9313c7ddc37b4f7d98d410 BNB0.000221316
0x7dc64ab19234f1b96c2b0c2eb6f9f8bfecddb0eb2dbabca359f87168b88292ab95960152021-07-30 7:16:501 hr 17 mins ago0x7fb6c532f6f8b52c348441fbbc386ecfaed3ee94OUT 0x3456edc9bc0639427b08f1b9711eba977e2e2f070 BNB0.0001879962
0x1e0a3345705c9ae5ce0e23dc3b8595bf91d54bcffe26b596cc7374c84393930195957912021-07-30 7:05:381 hr 28 mins ago0x7fb6c532f6f8b52c348441fbbc386ecfaed3ee94OUT 0xf6e65c024c13cb1b6ec9313c7ddc37b4f7d98d410 BNB0.00018425
0x7e4ec9a2a5b23ac4502519e5657a7cae2a1925559562812894b9f233b3bb194795954712021-07-30 6:49:341 hr 44 mins ago0x7fb6c532f6f8b52c348441fbbc386ecfaed3ee94OUT 0xf6e65c024c13cb1b6ec9313c7ddc37b4f7d98d410 BNB0.00018425
0x68ea8450998bcd7f06d607dc6db014200ab2fdd1877fc14b0c9255c7f9e421e595952872021-07-30 6:40:191 hr 54 mins ago0x7fb6c532f6f8b52c348441fbbc386ecfaed3ee94OUT 0xe97a25e36ae27944c9f7b3e99aa6de0edca133e10 BNB0.000230245
0x1649eb8fb47856de3b5aeb736dc9e1c067f5884ddf9b87987f430d64af04424d95951052021-07-30 6:31:132 hrs 3 mins ago0x7fb6c532f6f8b52c348441fbbc386ecfaed3ee94OUT 0xf6e65c024c13cb1b6ec9313c7ddc37b4f7d98d410 BNB0.0002252721
0x8b556e2c492e3fc27c29868356b6f0c24ba869b69c6122e8c8ceb48c606a0e8195949122021-07-30 6:21:342 hrs 12 mins ago0x7fb6c532f6f8b52c348441fbbc386ecfaed3ee94OUT 0xf6e65c024c13cb1b6ec9313c7ddc37b4f7d98d410 BNB0.000510631298
0xc75ae2a1bfeb04ad3fa3ddc877d8b8e4c8720e0fafc888ac16347a52ef75b88d95949022021-07-30 6:21:042 hrs 13 mins ago0x7fb6c532f6f8b52c348441fbbc386ecfaed3ee94OUT 0x3456edc9bc0639427b08f1b9711eba977e2e2f070 BNB0.00027055
0x83fe7a9ff43ccc5a7b602e66898e2d36729952f2bfdd923a98554cb48bdfc09995947152021-07-30 6:11:432 hrs 22 mins ago0x7fb6c532f6f8b52c348441fbbc386ecfaed3ee94OUT 0x6cf963760972db30464a7fb9189415b977f431850 BNB0.000372635013
0xd990fa3340ce75266ec8243d81ad3862ea518dc1d09406ef768c01226d4dbccd95946712021-07-30 6:09:312 hrs 24 mins ago0x7fb6c532f6f8b52c348441fbbc386ecfaed3ee94OUT 0x6cf963760972db30464a7fb9189415b977f431850 BNB0.000294896
0xb631776375fa527d1752a59189f19193a51ed6065fb109b3ca0fc2512aa6063395946462021-07-30 6:08:162 hrs 26 mins ago0x7fb6c532f6f8b52c348441fbbc386ecfaed3ee94OUT 0xf6e65c024c13cb1b6ec9313c7ddc37b4f7d98d410 BNB0.000184195
0x3301b5bfcdbcac5f33c3b431c77a4d61b8f9f92a7efc694a7af9b7581110700095946262021-07-30 6:07:162 hrs 27 mins ago0x7fb6c532f6f8b52c348441fbbc386ecfaed3ee94OUT 0x6cf963760972db30464a7fb9189415b977f431850 BNB0.0001877565
0xb19e5508e9e5640f9a3e4da08260dd80f138ec8ac156dba1b81189fadaf58a4195945532021-07-30 6:03:372 hrs 30 mins ago0x7fb6c532f6f8b52c348441fbbc386ecfaed3ee94OUT 0x67b3b93d913b85b7a44931b53121bdde1ff94ef50 BNB0.000230085
[ Download CSV Export 
Parent Txn Hash Block From To Value
Loading

Contract Name:
0 BNB

Compiler Version
0

Optimization Enabled:
0 BNB

Other Settings:
-NA-
Block Transaction Gas Used Reward
Age Block Fee Address BC Fee Address Voting Power Jailed Incoming
Block Uncle Number Difficulty Gas Used Reward
Loading
Loading
Make sure to use the "Vote Down" button for any spammy posts, and the "Vote Up" for interesting conversations.